K8MUD Weather Reports


Display with metric or nautical units.
time (UTC)temp
F
wind
direction
speed
MPH
gust
MPH
rain 1hr
in
rain 24hr
in
rain mn
in
humidity
%
barometer
mb
20260906093043 60 336 1.0 4.0 0.00 0.00 0.00 92 1017.3
20260906093003 60 336 1.0 4.0 0.00 0.00 0.00 92 1017.3
20260906092543 60 336 1.0 4.0 0.00 0.00 0.00 92 1017.2
20260906092503 60 336 1.0 4.0 0.00 0.00 0.00 92 1017.2
20260906092043 60 336 2.0 4.0 0.00 0.00 0.00 92 1017.3
20260906092006 60 336 2.0 4.0 0.00 0.00 0.00 92 1017.3
20260906091543 60 337 2.0 4.0 0.00 0.00 0.00 91 1017.3
20260906091502 60 337 2.0 4.0 0.00 0.00 0.00 91 1017.3
20260906091043 60 337 1.0 3.0 0.00 0.00 0.00 91 1017.3
20260906091003 60 337 1.0 3.0 0.00 0.00 0.00 91 1017.3
20260906090543 61 337 1.0 3.0 0.00 0.00 0.00 91 1017.2
20260906090503 61 337 1.0 3.0 0.00 0.00 0.00 91 1017.2
20260906090042 61 337 1.0 3.0 0.00 0.00 0.00 91 1017.1
20260906090002 61 337 1.0 3.0 0.00 0.00 0.00 91 1017.1
20260906085542 61 337 1.0 3.0 0.00 0.00 0.00 91 1017.1
20260906085503 61 337 1.0 3.0 0.00 0.00 0.00 91 1017.1
20260906085042 61 337 1.0 3.0 0.00 0.00 0.00 91 1017.0
20260906085003 61 337 1.0 3.0 0.00 0.00 0.00 91 1017.0
20260906084542 61 337 2.0 5.0 0.00 0.00 0.00 91 1016.9
20260906084502 61 337 2.0 5.0 0.00 0.00 0.00 91 1016.9
20260906084042 61 338 1.0 5.0 0.00 0.00 0.00 91 1017.0
20260906084002 61 338 1.0 5.0 0.00 0.00 0.00 91 1017.0
20260906083542 61 0 0.0 0.0 0.00 0.00 0.00 91 1017.0
20260906083503 61 0 0.0 0.0 0.00 0.00 0.00 91 1017.0
20260906083042 61 338 0.0 3.0 0.00 0.00 0.00 91 1017.0
20260906083002 61 338 0.0 3.0 0.00 0.00 0.00 91 1017.0
20260906082542 61 338 1.0 3.0 0.00 0.00 0.00 91 1017.0
20260906082502 61 338 1.0 3.0 0.00 0.00 0.00 91 1017.0
20260906082042 61 338 1.0 3.0 0.00 0.00 0.00 91 1017.0
20260906082003 61 338 1.0 3.0 0.00 0.00 0.00 91 1017.0
20260906081542 61 338 1.0 3.0 0.00 0.00 0.00 91 1017.0
20260906081503 61 338 1.0 3.0 0.00 0.00 0.00 91 1017.0
20260906081042 61 339 1.0 4.0 0.00 0.00 0.00 91 1017.0
20260906081002 61 339 1.0 4.0 0.00 0.00 0.00 91 1017.0
20260906080542 61 340 1.0 4.0 0.00 0.00 0.00 90 1017.0
20260906080502 61 340 1.0 4.0 0.00 0.00 0.00 90 1017.0
20260906080042 61 340 1.0 3.0 0.00 0.00 0.00 90 1016.9
20260906080003 61 340 1.0 3.0 0.00 0.00 0.00 90 1016.9
20260906075542 61 340 1.0 3.0 0.00 0.00 0.00 90 1016.8
20260906075503 61 340 1.0 3.0 0.00 0.00 0.00 90 1016.8
20260906075041 61 340 1.0 4.0 0.00 0.00 0.00 90 1016.8
20260906075003 61 340 1.0 4.0 0.00 0.00 0.00 90 1016.8
20260906074541 61 340 1.0 4.0 0.00 0.00 0.00 90 1016.7
20260906074502 61 340 1.0 4.0 0.00 0.00 0.00 90 1016.7
20260906074041 61 340 1.0 3.0 0.00 0.00 0.00 90 1016.7
20260906074003 61 340 1.0 3.0 0.00 0.00 0.00 90 1016.7
20260906073541 61 341 1.0 4.0 0.00 0.00 0.00 90 1016.7
20260906073503 61 341 1.0 4.0 0.00 0.00 0.00 90 1016.7
20260906073041 61 342 1.0 4.0 0.00 0.00 0.00 90 1016.7
20260906073005 61 342 1.0 4.0 0.00 0.00 0.00 90 1016.7
20260906072541 61 342 1.0 4.0 0.00 0.00 0.00 90 1016.6
20260906072503 61 342 1.0 4.0 0.00 0.00 0.00 90 1016.6
20260906072041 61 342 1.0 3.0 0.00 0.00 0.00 90 1016.5
20260906072006 61 342 1.0 3.0 0.00 0.00 0.00 90 1016.5
20260906071541 61 345 1.0 4.0 0.00 0.00 0.00 90 1016.5
20260906071503 61 345 1.0 4.0 0.00 0.00 0.00 90 1016.5
20260906071041 61 347 1.0 4.0 0.00 0.00 0.00 90 1016.4
20260906071003 61 347 1.0 4.0 0.00 0.00 0.00 90 1016.4
20260906070541 61 344 1.0 4.0 0.00 0.00 0.00 90 1016.4
20260906070502 61 344 1.0 4.0 0.00 0.00 0.00 90 1016.4
20260906070041 61 337 0.0 2.0 0.00 0.00 0.00 89 1016.3
20260906070003 61 337 0.0 2.0 0.00 0.00 0.00 89 1016.3
20260906065541 61 337 0.0 4.0 0.00 0.00 0.00 89 1016.4
20260906065503 61 337 0.0 4.0 0.00 0.00 0.00 89 1016.4
20260906065041 61 337 1.0 4.0 0.00 0.00 0.00 89 1016.3
20260906065023 61 337 1.0 4.0 0.00 0.00 0.00 89 1016.3
20260906064541 61 337 1.0 4.0 0.00 0.00 0.00 89 1016.4
20260906064506 61 337 1.0 3.0 0.00 0.00 0.00 89 1016.4
20260906064041 61 337 1.0 4.0 0.00 0.00 0.00 89 1016.5
20260906064003 61 337 1.0 4.0 0.00 0.00 0.00 89 1016.5
20260906063541 61 337 1.0 4.0 0.00 0.00 0.00 89 1016.4
20260906063503 61 337 1.0 4.0 0.00 0.00 0.00 89 1016.4
20260906063041 61 338 1.0 3.0 0.00 0.00 0.00 89 1016.5
20260906063002 61 338 1.0 3.0 0.00 0.00 0.00 89 1016.5
20260906062540 62 334 1.0 6.0 0.00 0.00 0.00 88 1016.5
20260906062524 62 334 1.0 6.0 0.00 0.00 0.00 88 1016.5
20260906062040 62 329 0.0 6.0 0.00 0.00 0.00 88 1016.5
20260906062024 62 329 0.0 6.0 0.00 0.00 0.00 88 1016.5
20260906061540 62 321 0.0 4.0 0.00 0.00 0.00 88 1016.4
20260906061506 62 321 0.0 4.0 0.00 0.00 0.00 88 1016.4
20260906061040 62 322 0.0 4.0 0.00 0.00 0.00 88 1016.5
20260906061024 62 322 0.0 4.0 0.00 0.00 0.00 88 1016.5
20260906060540 62 325 1.0 4.0 0.00 0.00 0.00 88 1016.4
20260906060503 62 325 1.0 4.0 0.00 0.00 0.00 88 1016.4
20260906060040 62 326 0.0 4.0 0.00 0.00 0.00 88 1016.5
20260906060002 62 326 0.0 4.0 0.00 0.00 0.00 88 1016.5
20260906055540 62 343 1.0 4.0 0.00 0.00 0.00 87 1016.5
20260906055503 62 343 1.0 4.0 0.00 0.00 0.00 87 1016.5
20260906055040 62 336 1.0 4.0 0.00 0.00 0.00 87 1016.4
20260906055003 62 336 1.0 4.0 0.00 0.00 0.00 87 1016.4
20260906054540 62 319 1.0 4.0 0.00 0.00 0.00 87 1016.4
20260906054503 62 319 1.0 4.0 0.00 0.00 0.00 87 1016.4
20260906054040 62 319 1.0 4.0 0.00 0.00 0.00 87 1016.4
20260906054003 62 319 1.0 4.0 0.00 0.00 0.00 87 1016.4
20260906053540 62 319 2.0 5.0 0.00 0.00 0.00 86 1016.6
20260906053503 62 319 2.0 5.0 0.00 0.00 0.00 86 1016.6
20260906053040 62 320 2.0 5.0 0.00 0.00 0.00 86 1016.7
20260906053006 62 320 2.0 5.0 0.00 0.00 0.00 86 1016.7
20260906052540 62 322 2.0 4.0 0.00 0.00 0.00 86 1016.7
20260906052503 62 322 2.0 4.0 0.00 0.00 0.00 86 1016.7
20260906052040 62 323 2.0 5.0 0.00 0.00 0.00 86 1016.7
20260906052003 62 323 2.0 5.0 0.00 0.00 0.00 86 1016.7
20260906051540 62 314 3.0 5.0 0.00 0.00 0.00 86 1016.7
20260906051503 62 314 3.0 5.0 0.00 0.00 0.00 86 1016.7
20260906051039 62 307 3.0 5.0 0.00 0.00 0.00 85 1016.6
20260906051003 62 307 3.0 5.0 0.00 0.00 0.00 85 1016.6
20260906050539 62 307 2.0 5.0 0.00 0.00 0.00 85 1016.6
20260906050503 62 307 2.0 5.0 0.00 0.00 0.00 85 1016.6
20260906050039 62 307 2.0 4.0 0.00 0.00 0.00 85 1016.5
20260906050003 62 307 2.0 4.0 0.00 0.00 0.00 85 1016.5
20260906045539 62 308 2.0 5.0 0.00 0.00 0.00 85 1016.5
20260906045503 62 308 2.0 5.0 0.00 0.00 0.00 85 1016.5
20260906045039 63 309 3.0 5.0 0.00 0.00 0.00 85 1016.5
20260906045003 63 309 3.0 5.0 0.00 0.00 0.00 85 1016.5
20260906044539 63 310 2.0 4.0 0.00 0.00 0.00 84 1016.4
20260906044503 63 310 2.0 4.0 0.00 0.00 0.00 84 1016.4
20260906044039 63 313 1.0 3.0 0.00 0.00 0.00 84 1016.4
20260906044003 63 313 1.0 3.0 0.00 0.00 0.00 84 1016.4
20260906043539 63 313 1.0 4.0 0.00 0.00 0.00 84 1016.3
20260906043503 63 313 1.0 4.0 0.00 0.00 0.00 84 1016.3
20260906043039 63 313 1.0 4.0 0.00 0.00 0.00 84 1016.4
20260906043003 63 313 1.0 4.0 0.00 0.00 0.00 84 1016.4
20260906042539 63 321 1.0 5.0 0.00 0.00 0.00 83 1016.3
20260906042503 63 322 1.0 5.0 0.00 0.00 0.00 83 1016.3
20260906042039 63 323 2.0 5.0 0.00 0.00 0.00 83 1016.4
20260906042027 63 323 2.0 5.0 0.00 0.00 0.00 83 1016.4
20260906041539 63 319 1.0 5.0 0.00 0.00 0.00 83 1016.4
20260906041503 63 319 1.0 5.0 0.00 0.00 0.00 83 1016.4
20260906041039 63 316 1.0 4.0 0.00 0.00 0.00 83 1016.4
20260906041006 63 316 1.0 4.0 0.00 0.00 0.00 83 1016.4
20260906040539 63 315 2.0 5.0 0.00 0.00 0.00 82 1016.4
20260906040503 63 315 2.0 5.0 0.00 0.00 0.00 82 1016.4
20260906040039 64 320 2.0 5.0 0.00 0.00 0.00 82 1016.3
20260906040003 64 320 2.0 5.0 0.00 0.00 0.00 82 1016.3
20260906035539 64 315 2.0 5.0 0.00 0.00 0.00 82 1016.4
20260906035503 64 315 2.0 5.0 0.00 0.00 0.00 82 1016.4
20260906035038 64 309 2.0 5.0 0.00 0.00 0.00 81 1016.4
20260906035004 64 309 2.0 5.0 0.00 0.00 0.00 81 1016.4
20260906034538 64 318 3.0 5.0 0.00 0.00 0.00 81 1016.4
20260906034524 64 318 3.0 5.0 0.00 0.00 0.00 81 1016.4
20260906034038 64 323 3.0 4.0 0.00 0.00 0.00 81 1016.5
20260906034003 64 323 3.0 4.0 0.00 0.00 0.00 81 1016.5
20260906033538 64 325 2.0 7.0 0.00 0.00 0.00 81 1016.3
20260906033503 64 325 2.0 7.0 0.00 0.00 0.00 81 1016.3
20260906033038 64 331 2.0 7.0 0.00 0.00 0.00 80 1016.2
20260906033003 64 331 2.0 7.0 0.00 0.00 0.00 80 1016.2
20260906032538 64 341 2.0 4.0 0.00 0.00 0.00 80 1016.2
20260906032503 64 341 2.0 4.0 0.00 0.00 0.00 80 1016.2
20260906032038 64 347 1.0 4.0 0.00 0.00 0.00 80 1016.3
20260906032025 64 347 1.0 4.0 0.00 0.00 0.00 80 1016.3
20260906031538 65 350 1.0 4.0 0.00 0.00 0.00 80 1016.3
20260906031503 65 350 1.0 4.0 0.00 0.00 0.00 80 1016.3
20260906031038 65 352 1.0 4.0 0.00 0.00 0.00 79 1016.3
20260906031003 65 352 1.0 4.0 0.00 0.00 0.00 79 1016.3
20260906030538 65 358 2.0 4.0 0.00 0.00 0.00 79 1016.4
20260906030504 65 358 2.0 4.0 0.00 0.00 0.00 79 1016.4
20260906030038 65 6 1.0 4.0 0.00 0.00 0.00 79 1016.4
20260906030024 65 6 1.0 4.0 0.00 0.00 0.00 79 1016.4
20260906025538 65 14 1.0 4.0 0.00 0.00 0.00 78 1016.3
20260906025503 65 14 1.0 4.0 0.00 0.00 0.00 78 1016.3
20260906025038 65 22 1.0 4.0 0.00 0.00 0.00 78 1016.4
20260906025003 65 22 1.0 4.0 0.00 0.00 0.00 78 1016.4
20260906024538 66 32 1.0 5.0 0.00 0.00 0.00 77 1016.4
20260906024506 66 32 1.0 5.0 0.00 0.00 0.00 77 1016.4
20260906024038 66 25 1.0 5.0 0.00 0.00 0.00 77 1016.4
20260906024003 66 25 1.0 5.0 0.00 0.00 0.00 77 1016.4
20260906023537 66 1 1.0 4.0 0.00 0.00 0.00 77 1016.5
20260906023503 66 1 1.0 4.0 0.00 0.00 0.00 77 1016.5
20260906023037 66 358 1.0 4.0 0.00 0.00 0.00 77 1016.4
20260906023003 66 358 1.0 4.0 0.00 0.00 0.00 77 1016.4
20260906022537 66 350 1.0 4.0 0.00 0.00 0.00 76 1016.5
20260906022503 66 350 1.0 4.0 0.00 0.00 0.00 76 1016.5
20260906022037 66 342 1.0 4.0 0.00 0.00 0.00 76 1016.6
20260906022004 66 342 1.0 4.0 0.00 0.00 0.00 76 1016.6
20260906021537 66 342 1.0 5.0 0.00 0.00 0.00 76 1016.6
20260906021503 66 342 1.0 5.0 0.00 0.00 0.00 76 1016.6
20260906021037 66 343 1.0 5.0 0.00 0.00 0.00 76 1016.5
20260906021003 66 343 1.0 5.0 0.00 0.00 0.00 76 1016.5
20260906020537 66 342 0.0 5.0 0.00 0.00 0.00 76 1016.5
20260906020503 66 342 0.0 5.0 0.00 0.00 0.00 76 1016.5
20260906020037 67 338 0.0 2.0 0.00 0.00 0.00 75 1016.4
20260906020004 67 338 0.0 2.0 0.00 0.00 0.00 75 1016.4
20260906015537 67 337 0.0 3.0 0.00 0.00 0.00 75 1016.4
20260906015503 67 337 0.0 3.0 0.00 0.00 0.00 75 1016.4
20260906015037 67 337 0.0 3.0 0.00 0.00 0.00 74 1016.5
20260906015006 67 337 0.0 3.0 0.00 0.00 0.00 74 1016.5
20260906014537 67 338 0.0 4.0 0.00 0.00 0.00 74 1016.5
20260906014503 67 338 0.0 4.0 0.00 0.00 0.00 74 1016.5
20260906014037 68 338 1.0 4.0 0.00 0.00 0.00 74 1016.4
20260906014003 68 338 1.0 4.0 0.00 0.00 0.00 74 1016.4
20260906013537 68 339 2.0 6.0 0.00 0.00 0.00 74 1016.2
20260906013506 68 340 2.0 6.0 0.00 0.00 0.00 74 1016.2
20260906013037 68 6 2.0 6.0 0.00 0.00 0.00 73 1016.2
20260906013024 68 6 2.0 6.0 0.00 0.00 0.00 73 1016.2
20260906012537 68 35 1.0 6.0 0.00 0.00 0.00 73 1016.1
20260906012524 68 36 1.0 6.0 0.00 0.00 0.00 73 1016.1
20260906012037 68 2 0.0 5.0 0.00 0.00 0.00 72 1016.0
20260906012007 68 2 0.0 5.0 0.00 0.00 0.00 72 1016.0
20260906011537 69 353 1.0 5.0 0.00 0.00 0.00 72 1015.8
20260906011503 69 353 1.0 5.0 0.00 0.00 0.00 72 1015.8
20260906011036 69 354 1.0 6.0 0.00 0.00 0.00 72 1015.7
20260906011003 69 354 1.0 6.0 0.00 0.00 0.00 72 1015.7
20260906010536 69 28 2.0 6.0 0.00 0.00 0.00 71 1015.7
20260906010503 69 28 2.0 6.0 0.00 0.00 0.00 71 1015.7
20260906010036 69 43 1.0 7.0 0.00 0.00 0.00 71 1015.6
20260906010003 69 43 1.0 7.0 0.00 0.00 0.00 71 1015.6
20260906005536 70 356 1.0 7.0 0.00 0.00 0.00 71 1015.6
20260906005503 70 355 1.0 7.0 0.00 0.00 0.00 71 1015.6
20260906005036 70 338 1.0 5.0 0.00 0.00 0.00 70 1015.5
20260906005003 70 338 1.0 5.0 0.00 0.00 0.00 70 1015.5
20260906004536 70 11 1.0 5.0 0.00 0.00 0.00 70 1015.5
20260906004503 70 12 1.0 5.0 0.00 0.00 0.00 70 1015.5
20260906004006 70 50 1.0 3.0 0.00 0.00 0.00 69 1015.5
20260906004001 70 50 1.0 3.0 0.00 0.00 0.00 69 1015.5
20260906003506 71 64 1.0 3.0 0.00 0.00 0.00 68 1015.6
20260906003501 71 64 1.0 3.0 0.00 0.00 0.00 68 1015.6
20260906003006 71 74 1.0 3.0 0.00 0.00 0.00 67 1015.5
20260906003004 71 75 1.0 3.0 0.00 0.00 0.00 67 1015.5
20260906002506 71 80 1.0 6.0 0.00 0.00 0.00 67 1015.5
20260906002501 71 80 1.0 6.0 0.00 0.00 0.00 67 1015.5
20260906002006 71 94 1.0 6.0 0.00 0.00 0.00 66 1015.5
20260906002001 71 94 1.0 6.0 0.00 0.00 0.00 66 1015.5
20260906001522 72 107 1.0 4.0 0.00 0.00 0.00 65 1015.3
20260906001506 72 104 1.0 4.0 0.00 0.00 0.00 65 1015.5
20260906001006 72 94 2.0 4.0 0.00 0.00 0.00 65 1015.5
20260906001002 72 94 2.0 4.0 0.00 0.00 0.00 65 1015.5
20260906000506 72 68 3.0 10.0 0.00 0.00 0.00 64 1015.4
20260906000501 72 68 3.0 10.0 0.00 0.00 0.00 64 1015.4
20260906000022 72 62 2.0 10.0 0.00 0.00 0.00 62 1015.4
20260906000005 72 61 2.0 10.0 0.00 0.00 0.00 62 1015.4
20260905235505 73 78 2.0 6.0 0.00 0.00 0.00 64 1015.4
20260905235501 73 78 2.0 6.0 0.00 0.00 0.00 64 1015.4
20260905235005 73 92 2.0 6.0 0.00 0.00 0.00 64 1015.3
20260905235001 73 93 2.0 6.0 0.00 0.00 0.00 64 1015.3
20260905234505 73 82 1.0 6.0 0.00 0.00 0.00 64 1015.4
20260905234005 74 58 1.0 4.0 0.00 0.00 0.00 64 1015.4
20260905234001 74 58 1.0 4.0 0.00 0.00 0.00 64 1015.4
20260905233523 74 52 2.0 9.0 0.00 0.00 0.00 63 1015.3
20260905233505 74 54 2.0 9.0 0.00 0.00 0.00 63 1015.4
20260905233022 74 61 2.0 9.0 0.00 0.00 0.00 63 1015.4
20260905233005 74 70 2.0 7.0 0.00 0.00 0.00 63 1015.5
20260905232505 74 80 3.0 7.0 0.00 0.00 0.00 64 1015.4
20260905232501 74 80 3.0 7.0 0.00 0.00 0.00 64 1015.4
20260905232005 74 72 3.0 7.0 0.00 0.00 0.00 64 1015.5
20260905232002 74 72 3.0 7.0 0.00 0.00 0.00 64 1015.5
20260905231505 75 68 3.0 10.0 0.00 0.00 0.00 63 1015.3
20260905231501 75 68 3.0 10.0 0.00 0.00 0.00 63 1015.3
20260905231005 75 70 3.0 10.0 0.00 0.00 0.00 63 1015.3
20260905230505 75 76 3.0 9.0 0.00 0.00 0.00 63 1015.2
20260905230502 75 71 3.0 9.0 0.00 0.00 0.00 63 1015.2
20260905230005 76 78 3.0 9.0 0.00 0.00 0.00 63 1015.2
20260905230001 76 78 2.0 9.0 0.00 0.00 0.00 63 1015.2
20260905225505 76 83 2.0 4.0 0.00 0.00 0.00 63 1015.2
20260905225501 76 83 2.0 4.0 0.00 0.00 0.00 63 1015.2
20260905225005 76 85 2.0 7.0 0.00 0.00 0.00 63 1015.1
20260905225001 76 85 2.0 7.0 0.00 0.00 0.00 63 1015.1
20260905224505 76 77 3.0 7.0 0.00 0.00 0.00 62 1015.0
20260905224502 76 79 3.0 7.0 0.00 0.00 0.00 62 1015.0
20260905224005 76 69 3.0 7.0 0.00 0.00 0.00 62 1015.0
20260905224001 76 69 3.0 7.0 0.00 0.00 0.00 62 1015.0
20260905223522 76 73 3.0 7.0 0.00 0.00 0.00 62 1014.9
20260905223504 76 76 3.0 8.0 0.00 0.00 0.00 61 1014.9
20260905223004 77 77 3.0 8.0 0.00 0.00 0.00 61 1014.9
20260905223002 77 80 3.0 8.0 0.00 0.00 0.00 61 1014.9
20260905222504 77 72 3.0 8.0 0.00 0.00 0.00 61 1015.0
20260905222502 77 73 2.0 8.0 0.00 0.00 0.00 61 1015.0
20260905222004 77 64 2.0 8.0 0.00 0.00 0.00 60 1014.8
20260905222001 77 63 2.0 8.0 0.00 0.00 0.00 61 1015.0
20260905221504 77 67 2.0 8.0 0.00 0.00 0.00 60 1014.9
20260905221501 77 67 2.0 8.0 0.00 0.00 0.00 60 1014.9
20260905221004 78 80 3.0 9.0 0.00 0.00 0.00 61 1014.9
20260905221002 78 79 3.0 9.0 0.00 0.00 0.00 61 1014.9
20260905220504 78 85 3.0 9.0 0.00 0.00 0.00 60 1014.9
20260905220501 78 84 3.0 9.0 0.00 0.00 0.00 60 1014.8
20260905220022 78 82 3.0 10.0 0.00 0.00 0.00 60 1014.8
20260905220004 78 80 3.0 10.0 0.00 0.00 0.00 60 1014.9
20260905215504 78 83 3.0 10.0 0.00 0.00 0.00 60 1014.9
20260905215023 78 96 3.0 7.0 0.00 0.00 0.00 59 1014.8
20260905215004 78 93 3.0 7.0 0.00 0.00 0.00 59 1014.9
20260905214504 78 85 3.0 10.0 0.00 0.00 0.00 59 1014.8
20260905214501 78 87 3.0 10.0 0.00 0.00 0.00 59 1014.9
20260905214004 79 80 3.0 10.0 0.00 0.00 0.00 57 1014.9
20260905214001 79 76 3.0 10.0 0.00 0.00 0.00 56 1014.8
20260905213504 79 80 3.0 10.0 0.00 0.00 0.00 58 1014.7
20260905213502 79 81 3.0 10.0 0.00 0.00 0.00 57 1014.7
20260905213003 79 80 2.0 6.0 0.00 0.00 0.00 58 1014.7
20260905213001 79 79 2.0 7.0 0.00 0.00 0.00 59 1014.7
20260905212504 79 81 3.0 9.0 0.00 0.00 0.00 57 1014.7
20260905212023 79 87 3.0 9.0 0.00 0.00 0.00 58 1014.7
20260905212003 79 84 3.0 9.0 0.00 0.00 0.00 57 1014.7
20260905211503 79 77 3.0 9.0 0.00 0.00 0.00 56 1014.7
20260905211501 79 77 2.0 7.0 0.00 0.00 0.00 56 1014.7
20260905211003 80 76 3.0 9.0 0.00 0.00 0.00 58 1014.7
20260905210522 80 79 3.0 9.0 0.00 0.00 0.00 56 1014.6
20260905210503 80 83 3.0 8.0 0.00 0.00 0.00 57 1014.5
20260905210003 80 78 2.0 8.0 0.00 0.00 0.00 58 1014.6
20260905210001 80 79 2.0 8.0 0.00 0.00 0.00 56 1014.6
20260905205503 80 69 2.0 8.0 0.00 0.00 0.00 56 1014.5
20260905205501 80 71 2.0 8.0 0.00 0.00 0.00 56 1014.5
20260905205003 80 84 3.0 8.0 0.00 0.00 0.00 57 1014.4
20260905204522 80 92 2.0 8.0 0.00 0.00 0.00 58 1014.5
20260905204503 80 92 2.0 8.0 0.00 0.00 0.00 58 1014.5
20260905204003 80 85 3.0 7.0 0.00 0.00 0.00 57 1014.4
20260905203523 80 83 2.0 6.0 0.00 0.00 0.00 57 1014.5
20260905203503 80 84 2.0 6.0 0.00 0.00 0.00 57 1014.5
20260905203003 80 92 2.0 9.0 0.00 0.00 0.00 59 1014.6
20260905203001 80 89 2.0 9.0 0.00 0.00 0.00 59 1014.6
20260905202503 80 92 3.0 9.0 0.00 0.00 0.00 60 1014.5
20260905202501 80 94 3.0 9.0 0.00 0.00 0.00 60 1014.5
20260905202003 80 89 2.0 8.0 0.00 0.00 0.00 60 1014.5
20260905201505 80 88 2.0 8.0 0.00 0.00 0.00 60 1014.6
20260905201502 80 91 2.0 8.0 0.00 0.00 0.00 60 1014.7
20260905201002 80 92 3.0 8.0 0.00 0.00 0.00 60 1014.6
20260905200523 80 91 3.0 8.0 0.00 0.00 0.00 62 1014.6
20260905200502 80 89 3.0 8.0 0.00 0.00 0.00 61 1014.6
20260905200026 80 88 3.0 9.0 0.00 0.00 0.00 62 1014.5
20260905200002 80 87 3.0 9.0 0.00 0.00 0.00 62 1014.5
20260905195502 80 86 3.0 9.0 0.00 0.00 0.00 62 1014.6
20260905195002 80 85 3.0 8.0 0.00 0.00 0.00 63 1014.5
20260905194502 80 87 4.0 8.0 0.00 0.00 0.00 62 1014.4
20260905194026 80 90 3.0 8.0 0.00 0.00 0.00 61 1014.5
20260905194002 80 89 3.0 8.0 0.00 0.00 0.00 62 1014.6
20260905193502 80 79 3.0 7.0 0.00 0.00 0.00 64 1014.6
20260905193002 80 73 3.0 8.0 0.00 0.00 0.00 63 1014.6
20260905192505 80 78 3.0 9.0 0.00 0.00 0.00 64 1014.6
20260905192502 80 80 4.0 9.0 0.00 0.00 0.00 63 1014.7
20260905192002 80 86 4.0 9.0 0.00 0.00 0.00 62 1014.6
20260905191504 80 88 4.0 9.0 0.00 0.00 0.00 63 1014.7
20260905191502 80 89 3.0 9.0 0.00 0.00 0.00 63 1014.7
20260905191001 80 88 3.0 7.0 0.00 0.00 0.00 63 1014.8
20260905190502 79 88 4.0 10.0 0.00 0.00 0.00 64 1014.7
20260905190001 79 93 4.0 9.0 0.00 0.00 0.00 63 1014.9
20260905185526 79 92 4.0 10.0 0.00 0.00 0.00 62 1014.9
20260905185501 79 90 4.0 10.0 0.00 0.00 0.00 62 1014.9
20260905185023 80 86 4.0 10.0 0.00 0.00 0.00 62 1014.9
20260905185001 80 84 4.0 10.0 0.00 0.00 0.00 63 1014.8
20260905184502 80 83 4.0 8.0 0.00 0.00 0.00 63 1014.9
20260905184001 80 80 4.0 10.0 0.00 0.00 0.00 63 1015.0
20260905183522 80 83 3.0 10.0 0.00 0.00 0.00 62 1015.0
20260905183501 80 84 3.0 10.0 0.00 0.00 0.00 62 1015.0
20260905183026 80 90 3.0 9.0 0.00 0.00 0.00 65 1015.1
20260905183001 80 95 3.0 9.0 0.00 0.00 0.00 64 1015.1
20260905182502 80 92 3.0 9.0 0.00 0.00 0.00 63 1015.1
20260905182005 80 90 3.0 7.0 0.00 0.00 0.00 64 1015.1
20260905182001 80 89 3.0 7.0 0.00 0.00 0.00 65 1015.1
20260905181501 80 89 4.0 8.0 0.00 0.00 0.00 64 1015.0
20260905181002 80 87 4.0 9.0 0.00 0.00 0.00 63 1015.1
20260905180502 81 85 3.0 9.0 0.00 0.00 0.00 62 1015.2
20260905180001 80 81 2.0 7.0 0.00 0.00 0.00 63 1015.0
20260905175502 80 74 2.0 7.0 0.00 0.00 0.00 64 1015.1
20260905175002 80 82 2.0 8.0 0.00 0.00 0.00 65 1015.2
20260905174502 79 86 3.0 9.0 0.00 0.00 0.00 65 1015.2
20260905174001 79 87 4.0 9.0 0.00 0.00 0.00 64 1015.3
20260905173502 79 88 3.0 8.0 0.00 0.00 0.00 63 1015.2
20260905173500 79 88 3.0 8.0 0.00 0.00 0.00 64 1015.2
20260905173023 79 94 2.0 8.0 0.00 0.00 0.00 64 1015.2
20260905173000 79 95 2.0 7.0 0.00 0.00 0.00 63 1015.2
20260905172502 79 91 2.0 7.0 0.00 0.00 0.00 63 1015.3
20260905172500 79 90 2.0 7.0 0.00 0.00 0.00 63 1015.3
20260905172002 80 78 2.0 7.0 0.00 0.00 0.00 63 1015.4
20260905172000 80 77 2.0 7.0 0.00 0.00 0.00 63 1015.4
20260905171502 80 65 2.0 7.0 0.00 0.00 0.00 64 1015.4
20260905171500 80 66 2.0 7.0 0.00 0.00 0.00 64 1015.4
20260905171002 79 68 2.0 7.0 0.00 0.00 0.00 66 1015.5
20260905171000 79 68 2.0 7.0 0.00 0.00 0.00 65 1015.5
20260905170502 79 83 3.0 7.0 0.00 0.00 0.00 65 1015.5
20260905170500 79 84 2.0 7.0 0.00 0.00 0.00 65 1015.5
20260905170004 79 79 2.0 7.0 0.00 0.00 0.00 65 1015.4
20260905170000 79 79 2.0 7.0 0.00 0.00 0.00 67 1015.4
20260905165502 78 67 2.0 8.0 0.00 0.00 0.00 66 1015.4
20260905165500 78 67 2.0 8.0 0.00 0.00 0.00 67 1015.4
20260905165023 78 66 2.0 8.0 0.00 0.00 0.00 68 1015.4
20260905165000 78 68 2.0 8.0 0.00 0.00 0.00 68 1015.3
20260905164526 77 75 2.0 7.0 0.00 0.00 0.00 69 1015.4
20260905164500 77 80 2.0 7.0 0.00 0.00 0.00 69 1015.3
20260905164023 77 90 2.0 7.0 0.00 0.00 0.00 68 1015.4
20260905164000 77 90 3.0 7.0 0.00 0.00 0.00 69 1015.5
20260905163502 77 90 2.0 7.0 0.00 0.00 0.00 69 1015.4
20260905163459 77 88 2.0 7.0 0.00 0.00 0.00 70 1015.5
20260905163002 77 85 2.0 8.0 0.00 0.00 0.00 69 1015.5
20260905162959 76 85 2.0 8.0 0.00 0.00 0.00 71 1015.4
20260905162502 76 90 2.0 8.0 0.00 0.00 0.00 71 1015.4
20260905162459 76 91 3.0 8.0 0.00 0.00 0.00 71 1015.4
20260905162002 76 93 3.0 8.0 0.00 0.00 0.00 71 1015.4
20260905161959 76 91 3.0 8.0 0.00 0.00 0.00 72 1015.4
20260905161523 75 90 3.0 7.0 0.00 0.00 0.00 73 1015.4
20260905161459 75 89 3.0 8.0 0.00 0.00 0.00 73 1015.5
20260905161005 75 87 3.0 8.0 0.00 0.00 0.00 73 1015.4
20260905160959 75 89 3.0 8.0 0.00 0.00 0.00 75 1015.4
20260905160523 75 87 3.0 8.0 0.00 0.00 0.00 73 1015.4
20260905160459 75 86 2.0 8.0 0.00 0.00 0.00 73 1015.4
20260905160023 74 85 2.0 7.0 0.00 0.00 0.00 74 1015.4
20260905155959 74 84 2.0 7.0 0.00 0.00 0.00 73 1015.3
20260905155502 74 79 2.0 5.0 0.00 0.00 0.00 74 1015.3
20260905155459 74 80 2.0 5.0 0.00 0.00 0.00 74 1015.3
20260905155005 74 79 1.0 4.0 0.00 0.00 0.00 75 1015.3
20260905154959 74 76 1.0 4.0 0.00 0.00 0.00 75 1015.3
20260905154523 74 77 2.0 5.0 0.00 0.00 0.00 76 1015.3
20260905154459 74 75 2.0 5.0 0.00 0.00 0.00 76 1015.3
20260905154023 74 74 2.0 6.0 0.00 0.00 0.00 76 1015.2
20260905153959 74 74 2.0 6.0 0.00 0.00 0.00 76 1015.2
20260905153502 74 82 2.0 7.0 0.00 0.00 0.00 76 1015.2
20260905153459 74 86 2.0 7.0 0.00 0.00 0.00 76 1015.2
20260905153001 73 87 2.0 8.0 0.00 0.00 0.00 76 1015.3
20260905152958 73 90 2.0 8.0 0.00 0.00 0.00 76 1015.2
20260905152501 73 81 2.0 8.0 0.00 0.00 0.00 76 1015.1
20260905152458 73 81 2.0 8.0 0.00 0.00 0.00 76 1015.1
20260905152002 73 81 2.0 6.0 0.00 0.01 0.00 76 1015.2
20260905151958 73 79 2.0 6.0 0.00 0.01 0.00 77 1015.1
20260905151502 73 91 1.0 3.0 0.00 0.01 0.00 78 1015.0
20260905151458 73 91 1.0 3.0 0.00 0.01 0.00 78 1015.0
20260905151001 73 86 1.0 4.0 0.00 0.01 0.00 78 1015.0
20260905150958 73 87 2.0 5.0 0.00 0.01 0.00 77 1015.0
20260905150502 72 83 2.0 5.0 0.00 0.02 0.00 78 1015.0
20260905150458 72 82 2.0 5.0 0.00 0.02 0.00 78 1014.9
20260905150005 72 77 1.0 5.0 0.00 0.03 0.00 77 1015.0
20260905145958 72 74 1.0 5.0 0.00 0.03 0.00 78 1015.1
20260905145523 72 76 1.0 5.0 0.00 0.03 0.00 78 1015.0
20260905145458 72 83 1.0 5.0 0.00 0.03 0.00 78 1014.9
20260905145005 72 84 1.0 4.0 0.00 0.04 0.00 78 1014.8
20260905144958 72 84 2.0 4.0 0.00 0.04 0.00 78 1014.9
20260905144502 72 80 2.0 5.0 0.00 0.04 0.00 78 1014.9
20260905144458 72 79 2.0 6.0 0.00 0.04 0.00 78 1014.9
20260905144002 72 81 2.0 6.0 0.00 0.04 0.00 79 1014.7
20260905143958 72 83 2.0 6.0 0.00 0.05 0.00 79 1014.7
20260905143502 72 82 2.0 7.0 0.00 0.05 0.00 79 1014.8
20260905143458 72 80 2.0 7.0 0.00 0.05 0.00 79 1014.8
20260905143002 72 74 2.0 7.0 0.00 0.05 0.00 79 1014.7
20260905142958 72 70 1.0 7.0 0.00 0.05 0.00 79 1014.7
20260905142503 71 69 1.0 6.0 0.00 0.05 0.00 79 1014.7
20260905142458 71 68 1.0 6.0 0.00 0.05 0.00 79 1014.7
20260905142002 71 63 1.0 6.0 0.00 0.06 0.00 79 1014.8
20260905141958 71 66 2.0 6.0 0.00 0.06 0.00 79 1014.8
20260905141502 71 68 1.0 6.0 0.00 0.06 0.00 80 1014.8
20260905141457 71 68 1.0 6.0 0.00 0.06 0.00 79 1014.8
20260905141026 71 80 1.0 6.0 0.00 0.07 0.00 79 1014.8
20260905140958 71 84 1.0 6.0 0.00 0.07 0.00 80 1014.9
20260905140503 71 80 1.0 4.0 0.00 0.07 0.00 80 1015.0
20260905140457 71 80 1.0 4.0 0.00 0.07 0.00 79 1015.0
20260905140023 71 83 1.0 5.0 0.00 0.08 0.00 79 1015.0
20260905135957 71 82 1.0 6.0 0.00 0.08 0.00 79 1015.0
20260905135523 71 77 2.0 6.0 0.00 0.09 0.00 79 1014.9
20260905135457 71 76 2.0 6.0 0.00 0.09 0.00 79 1014.9
20260905135005 71 70 1.0 6.0 0.00 0.09 0.00 80 1014.9
20260905134957 71 73 2.0 5.0 0.00 0.09 0.00 80 1014.7
20260905134503 71 81 1.0 8.0 0.00 0.09 0.00 80 1014.7
20260905134457 71 84 1.0 8.0 0.00 0.10 0.00 80 1014.7
20260905134026 71 83 1.0 8.0 0.00 0.10 0.00 79 1014.7
20260905133957 71 83 1.0 8.0 0.00 0.10 0.00 79 1014.5
20260905133502 71 81 1.0 5.0 0.00 0.10 0.00 79 1014.9
20260905133457 71 79 1.0 5.0 0.00 0.10 0.00 79 1014.8
20260905133002 71 97 0.0 3.0 0.00 0.10 0.00 80 1014.9
20260905132957 71 97 0.0 3.0 0.00 0.10 0.00 80 1014.9
20260905132503 70 97 0.0 4.0 0.00 0.10 0.00 80 1014.9
20260905132457 70 91 0.0 6.0 0.00 0.10 0.00 80 1014.9
20260905132002 70 84 1.0 6.0 0.00 0.10 0.00 81 1014.9
20260905131957 70 83 1.0 6.0 0.00 0.10 0.00 81 1014.9
20260905131502 70 75 1.0 6.0 0.00 0.10 0.00 80 1014.9
20260905131457 70 75 1.0 5.0 0.00 0.10 0.00 80 1014.9
20260905131002 70 75 1.0 5.0 0.00 0.10 0.00 81 1014.9
20260905130957 70 74 0.0 5.0 0.00 0.10 0.00 81 1014.9
20260905130524 70 78 0.0 3.0 0.00 0.10 0.00 81 1014.7
20260905130457 70 77 0.0 3.0 0.00 0.10 0.00 81 1014.7
20260905130002 70 0 0.0 0.0 0.00 0.10 0.00 82 1014.6
20260905125957 70 0 0.0 0.0 0.00 0.10 0.00 81 1014.6
20260905125523 69 0 0.0 0.0 0.00 0.10 0.00 82 1014.6
20260905125457 69 0 0.0 0.0 0.00 0.10 0.00 82 1014.6
20260905125005 69 80 0.0 4.0 0.00 0.10 0.00 82 1014.6
20260905124957 69 85 0.0 4.0 0.00 0.10 0.00 82 1014.7
20260905124502 69 90 0.0 4.0 0.00 0.10 0.00 83 1014.9
20260905124456 69 90 1.0 4.0 0.00 0.10 0.00 83 1014.8
20260905124005 69 87 1.0 4.0 0.00 0.10 0.00 83 1014.8
20260905123956 69 85 1.0 4.0 0.00 0.10 0.00 83 1014.8
20260905123502 69 75 1.0 5.0 0.00 0.10 0.00 83 1014.8
20260905123456 69 76 1.0 5.0 0.00 0.10 0.00 83 1014.8
20260905123002 69 78 1.0 5.0 0.00 0.10 0.00 84 1014.8
20260905122956 69 79 1.0 8.0 0.00 0.10 0.00 83 1014.8
20260905122502 69 82 1.0 8.0 0.00 0.11 0.00 84 1014.7
20260905122456 69 81 1.0 8.0 0.00 0.11 0.00 84 1014.7
20260905122005 69 82 1.0 8.0 0.00 0.11 0.00 84 1014.6
20260905121956 69 77 1.0 6.0 0.00 0.11 0.00 84 1014.5
20260905121502 69 77 1.0 6.0 0.00 0.11 0.00 85 1014.6
20260905121456 69 81 1.0 6.0 0.00 0.11 0.00 85 1014.6
20260905121026 69 75 2.0 6.0 0.00 0.11 0.00 85 1014.5
20260905120956 69 75 2.0 6.0 0.00 0.11 0.00 85 1014.5
20260905120503 69 68 2.0 5.0 0.00 0.11 0.00 85 1014.5
20260905120456 69 63 2.0 5.0 0.00 0.11 0.00 85 1014.5
20260905120002 69 68 2.0 5.0 0.00 0.11 0.00 85 1014.4
20260905115956 69 70 2.0 5.0 0.00 0.11 0.00 85 1014.4
20260905115502 69 78 1.0 5.0 0.00 0.11 0.00 85 1014.5
20260905115456 69 78 1.0 5.0 0.00 0.11 0.00 85 1014.5
20260905115005 69 79 2.0 8.0 0.00 0.11 0.00 85 1014.6
20260905114956 69 79 2.0 8.0 0.00 0.11 0.00 85 1014.6
20260905114503 69 81 1.0 8.0 0.00 0.11 0.00 85 1014.5
20260905114456 69 82 1.0 8.0 0.00 0.11 0.00 85 1014.5
20260905114006 69 80 1.0 6.0 0.00 0.11 0.00 85 1014.4
20260905113956 69 79 1.0 6.0 0.00 0.11 0.00 86 1014.4
20260905113502 69 80 2.0 5.0 0.00 0.11 0.00 85 1014.4
20260905113456 69 78 2.0 5.0 0.00 0.11 0.00 85 1014.4
20260905113023 69 75 2.0 8.0 0.00 0.11 0.00 86 1014.3
20260905112956 69 72 2.0 8.0 0.00 0.11 0.00 85 1014.3
20260905112503 69 65 2.0 8.0 0.00 0.11 0.00 85 1014.4
20260905112456 69 65 2.0 8.0 0.00 0.11 0.00 85 1014.4
20260905112002 69 73 1.0 6.0 0.00 0.11 0.00 86 1014.3
20260905111955 69 77 1.0 6.0 0.00 0.11 0.00 86 1014.3
20260905111502 69 72 2.0 6.0 0.00 0.11 0.00 85 1014.2
20260905111455 69 70 2.0 6.0 0.00 0.11 0.00 85 1014.2
20260905111023 69 67 2.0 6.0 0.00 0.11 0.00 85 1014.3
20260905110955 69 66 2.0 6.0 0.00 0.11 0.00 85 1014.3
20260905110524 69 66 2.0 5.0 0.00 0.11 0.00 85 1014.2
20260905110455 69 66 2.0 5.0 0.00 0.11 0.00 85 1014.3
20260905110002 69 62 2.0 6.0 0.00 0.11 0.00 86 1014.3
20260905105955 69 61 2.0 6.0 0.00 0.11 0.00 85 1014.3
20260905105523 69 57 2.0 6.0 0.00 0.11 0.00 86 1014.3
20260905105455 69 61 2.0 6.0 0.00 0.11 0.00 86 1014.3
20260905105002 69 66 2.0 5.0 0.00 0.11 0.00 86 1014.3
20260905104955 69 67 2.0 5.0 0.00 0.11 0.00 86 1014.3
20260905104502 69 71 2.0 5.0 0.00 0.11 0.00 87 1014.3
20260905104455 69 70 2.0 5.0 0.00 0.11 0.00 87 1014.3
20260905104023 69 70 1.0 4.0 0.00 0.11 0.00 87 1014.3
20260905103955 69 63 1.0 4.0 0.00 0.11 0.00 88 1014.4
20260905103502 69 63 0.0 2.0 0.00 0.11 0.00 88 1014.5
20260905103455 69 62 0.0 2.0 0.00 0.11 0.00 88 1014.5
20260905103003 69 29 0.0 2.0 0.00 0.11 0.00 88 1014.6
20260905102955 69 29 0.0 2.0 0.00 0.11 0.00 88 1014.6
20260905102502 69 14 0.0 2.0 0.00 0.11 0.00 87 1014.3
20260905102455 69 1 0.0 2.0 0.00 0.11 0.00 87 1014.3
20260905102023 69 0 0.0 0.0 0.00 0.11 0.00 87 1014.3
20260905101955 69 0 0.0 0.0 0.00 0.11 0.00 87 1014.3
20260905101503 69 0 0.0 0.0 0.00 0.11 0.00 87 1014.2
20260905101455 69 0 0.0 0.0 0.00 0.11 0.00 87 1014.2
20260905101002 69 0 0.0 0.0 0.00 0.11 0.00 87 1014.3
20260905100955 69 0 0.0 0.0 0.00 0.11 0.00 87 1014.3
20260905100527 69 0 0.0 0.0 0.00 0.11 0.00 87 1014.2
20260905100454 69 0 0.0 0.0 0.00 0.11 0.00 87 1014.2
20260905100002 69 0 0.0 0.0 0.00 0.11 0.00 87 1014.3
20260905095954 69 0 0.0 0.0 0.00 0.11 0.00 87 1014.3
20260905095502 69 0 0.0 0.0 0.00 0.11 0.00 87 1014.3
20260905095454 69 0 0.0 0.0 0.00 0.11 0.00 87 1014.3
20260905095003 69 0 0.0 0.0 0.00 0.11 0.00 87 1014.4
20260905094954 69 0 0.0 0.0 0.00 0.11 0.00 87 1014.4
20260905094503 69 0 0.0 0.0 0.00 0.11 0.00 87 1014.4
20260905094454 69 0 0.0 0.0 0.00 0.11 0.00 87 1014.4
20260905094002 69 0 0.0 0.0 0.00 0.11 0.00 87 1014.4
20260905093954 69 0 0.0 0.0 0.00 0.11 0.00 87 1014.4
20260905093503 69 0 0.0 0.0 0.00 0.11 0.00 87 1014.4
20260905093454 69 0 0.0 0.0 0.00 0.11 0.00 87 1014.3